STARLINK-35467

Last updated on Sun Dec 07 2025 00:02:05 GMT+0000 (Coordinated Universal Time)

1 66343U 25253AA 25340.46306268 .00089865 00000+0 21274-2 0 9991 2 66343 43.0012 21.8634 0002409 257.1609 102.8979 15.40782297 5953
UTC large
Height (km)
Speed (km/s)
/
Latitude / Longitude
Inclination (degrees)
Orbital Period (minutes)
Azimuth
Elevation
Range (km)
Doppler Factor

Next 0 passes for location: London (51.5072 / 0.1276)

Sorry there are no passes over London.